Погода в Ивало

Финляндия     68°39′37″N   27°32′19″E
темп.,
°C
ветер,
м/с
пор.,
м/с
влажн.,
%
обл.,
%
осадки,
мм/ч
давл.,
гПа
погр.,
м
27 ноября, сб
сб2723:00−14ссз1196100 0.0 100519
02:00−14сз1196100 0.0 100612
05:00−15зюз119699 0.0 100710
08:00−15юз1196100 0.0 100910
11:00−16юз119668 0.0 10109
14:00−17ююз119766 0.0 101111
17:00−17юз119834 0.0 101213
20:00−19ююз119957 0.0 101212
28 ноября, вс
вс2823:00−19ююз119957 0.0 101212
02:00−20ююз119970 0.0 101215
05:00−20ю2210082 0.0 101119
08:00−20ю2110074 0.0 101122
11:00−16ююв249786 0.0 101183
14:00−16ююв2498100 0.1 101057
17:00−15ююв3697100 0.0 100999
20:00−11ююв4992100 0.1 1009306
29 ноября, пн
пн2923:00−10ю51289100 0.1 1009500
02:00−9ю61386100 0.1 1008546
05:00−9ююз61387100 0.0 1008543
08:00−9ююз61486100 0.1 1008532
11:00−9ю61487100 0.0 1009486
14:00−9ю6158576 0.0 1008532
17:00−9ююз61387100 0.0 1008432
20:00−9ю5128895 0.0 1008470
30 ноября, вт
вт3023:00−10ю4108698 0.0 1008334
02:00−11ю4987100 0.0 1008287
05:00−11ю359160 0.0 1007103
08:00−14ю229679 0.0 100629
11:00−17ююз229872 0.0 100512
14:00−17зюз1197100 0.0 100317
17:00−16ссз2297100 0.0 100233
20:00−15с3597100 0.0 1000104
1 декабря, ср
ср123:00−13с4792100 0.0 999201
02:00−10с51186100 0.0 996315
05:00−9с61295100 0.1 996389
08:00−7ссв51090100 0.1 995332
11:00−4св61376100 0.0 995868
14:00−4св71580100 0.0 9961015
17:00−4св71688100 0.1 9971184
20:00−4всв91884100 0.5 9981498